Location: Wells
(51.2093°N, 2.6446°W)
Time: 07:40:23
(UTC+01:00)

SO-50 - Pass Details

Date: 15 March 2026
Orbit: 567 x 673 km, 64.6° (Epoch: 17 April)

Event Time Altitude Azimuth Distance (km) Brightness Sun altitude
Rises 19:56:20 0° 250° (WSW) 2,956 ? -16.4°
Reaches altitude 10° 19:58:46 10° 260° (W) 2,064 ? -16.8°
Maximum altitude 20:03:05 35° 326° (NNW) 1,070 ? -17.4°
Drops below altitude 10° 20:07:31 10° 33° (NNE) 2,110 ? -18.1°
Enters shadow 20:09:37 - 41° (NE) 2,877 ? -18.4°
